Location: Anumalkud?ru
(16.4847°N, 80.6636°E)
Time: 15:18:32
(UTC+00:00)

Delta 198 - Pass Details

Date: 11 April 2026
Orbit: 449 x 914 km, 24.8° (Epoch: 10 May)

Event Time Altitude Azimuth Distance (km) Brightness Sun altitude
Rises 14:21:43 0° 289° (WNW) 2,701 8.4 -21.8°
Reaches altitude 10° 14:24:07 10° 290° (WNW) 1,740 7.0 -22.4°
Enters shadow 14:27:39 69° 289° (WNW) 518 3.2 -23.2°
